Dades meteomassalio
Diari Summary for Octubre 21, 2017 Units:  Metric    English   Both
« Previous Day
Next Day »
Diari Semanal Mensual Anual Personalitzat
  Maxima: Minima: Mijana:
Temperatura: 25.0 °C 7.8 °C 15.5 °C
Rosada: 14.8 °C 6.4 °C 10 °C
Humitat: 92 % 49 % 72 %
Velocitat del vent: 43.4 km/h 0.0 km/h 10.5 km/h
Racha vent: 43.4 km/h - -
Vent:- - WSW
Pressio: 1028.3 hPa 1021.9 hPa -
Pluja: 0.0 mm    
Historical Graphs
 
 
Tabular Data for Octubre 21, 2017
Time Temperature Dew Point Pressure Wind Wind Speed Wind Gust Humidity Rainfall Rate (Hourly) solar Conditions
00:00 10.6 °C 7.4 °C 1023.2 hPa Calm     81 % 0.0 mm 0.0 W/m2 CLR
00:05 10.6 °C 7.4 °C 1023.2 hPa Calm     81 % 0.0 mm 0.0 W/m2 CLR
00:10 10.6 °C 7.6 °C 1023.2 hPa Calm     82 % 0.0 mm 0.0 W/m2 CLR
00:15 10.6 °C 7.6 °C 1023.2 hPa Calm     82 % 0.0 mm 0.0 W/m2 CLR
00:20 10.6 °C 7.6 °C 1023.2 hPa Calm     82 % 0.0 mm 0.0 W/m2 CLR
00:25 10.6 °C 7.6 °C 1023.2 hPa Calm     82 % 0.0 mm 0.0 W/m2 CLR
00:30 10.6 °C 7.8 °C 1023.2 hPa Calm     83 % 0.0 mm 0.0 W/m2 CLR
00:35 10.6 °C 7.8 °C 1023.2 hPa Calm     83 % 0.0 mm 0.0 W/m2 CLR
00:40 10.6 °C 7.8 °C 1023.2 hPa Calm     83 % 0.0 mm 0.0 W/m2 CLR
00:45 10.6 °C 7.9 °C 1023.2 hPa Calm     84 % 0.0 mm 0.0 W/m2 CLR
00:50 10.6 °C 7.9 °C 1023.2 hPa Calm     84 % 0.0 mm 0.0 W/m2 CLR
00:55 10.6 °C 8.1 °C 1023.2 hPa Calm     85 % 0.0 mm 0.0 W/m2 CLR
01:00 10.0 °C 7.6 °C 1023.2 hPa Calm     85 % 0.0 mm 0.0 W/m2 CLR
01:05 10.0 °C 7.6 °C 1023.2 hPa Calm     85 % 0.0 mm 0.0 W/m2 CLR
01:10 10.0 °C 7.6 °C 1023.2 hPa Calm     85 % 0.0 mm 0.0 W/m2 CLR
01:15 10.0 °C 7.6 °C 1023.2 hPa Calm     85 % 0.0 mm 0.0 W/m2 CLR
01:20 10.0 °C 7.8 °C 1023.6 hPa Calm     86 % 0.0 mm 0.0 W/m2 CLR
01:25 10.0 °C 7.8 °C 1023.6 hPa Calm     86 % 0.0 mm 0.0 W/m2 CLR
01:30 10.0 °C 7.8 °C 1023.2 hPa Calm     86 % 0.0 mm 0.0 W/m2 CLR
01:35 10.0 °C 7.8 °C 1023.6 hPa Calm     86 % 0.0 mm 0.0 W/m2 CLR
01:40 10.0 °C 7.9 °C 1023.2 hPa Calm     87 % 0.0 mm 0.0 W/m2 CLR
01:46 10.0 °C 7.9 °C 1023.2 hPa Calm     87 % 0.0 mm 0.0 W/m2 CLR
01:51 10.0 °C 7.9 °C 1023.2 hPa Calm     87 % 0.0 mm 0.0 W/m2 CLR
01:56 10.0 °C 7.9 °C 1023.2 hPa Calm     87 % 0.0 mm 0.0 W/m2 CLR
02:01 10.0 °C 7.8 °C 1023.2 hPa Calm     86 % 0.0 mm 0.0 W/m2 CLR
02:06 9.4 °C 7.4 °C 1023.2 hPa Calm     87 % 0.0 mm 0.0 W/m2 CLR
02:11 9.4 °C 7.2 °C 1023.6 hPa Calm     86 % 0.0 mm 0.0 W/m2 CLR
02:16 9.4 °C 7.2 °C 1023.2 hPa Calm     86 % 0.0 mm 0.0 W/m2 CLR
02:21 9.4 °C 7.4 °C 1023.2 hPa Calm     87 % 0.0 mm 0.0 W/m2 CLR
02:26 9.4 °C 7.4 °C 1023.2 hPa Calm     87 % 0.0 mm 0.0 W/m2 CLR
02:31 9.4 °C 7.4 °C 1023.2 hPa Calm     87 % 0.0 mm 0.0 W/m2 CLR
02:36 9.4 °C 7.6 °C 1023.2 hPa Calm     88 % 0.0 mm 0.0 W/m2 CLR
02:41 9.4 °C 7.4 °C 1023.6 hPa Calm     87 % 0.0 mm 0.0 W/m2 CLR
02:46 9.4 °C 7.4 °C 1023.6 hPa Calm     87 % 0.0 mm 0.0 W/m2 CLR
02:51 9.4 °C 7.4 °C 1023.2 hPa Calm     87 % 0.0 mm 0.0 W/m2 CLR
02:56 8.9 °C 6.8 °C 1023.6 hPa Calm     87 % 0.0 mm 0.0 W/m2 CLR
03:01 8.9 °C 7.0 °C 1023.6 hPa Calm     88 % 0.0 mm 0.0 W/m2 CLR
03:06 8.9 °C 6.8 °C 1023.6 hPa Calm     87 % 0.0 mm 0.0 W/m2 CLR
03:11 8.9 °C 7.0 °C 1023.2 hPa Calm     88 % 0.0 mm 0.0 W/m2 CLR
03:16 8.9 °C 7.0 °C 1023.2 hPa Calm     88 % 0.0 mm 0.0 W/m2 CLR
03:21 9.4 °C 7.6 °C 1023.2 hPa Calm     88 % 0.0 mm 0.0 W/m2 CLR
03:26 9.4 °C 7.6 °C 1023.2 hPa Calm     88 % 0.0 mm 0.0 W/m2 CLR
03:31 9.4 °C 7.6 °C 1023.2 hPa Calm     88 % 0.0 mm 0.0 W/m2 CLR
03:36 8.9 °C 7.0 °C 1023.2 hPa Calm     88 % 0.0 mm 0.0 W/m2 CLR
03:41 9.4 °C 7.7 °C 1023.2 hPa Calm     89 % 0.0 mm 0.0 W/m2 CLR
03:46 9.4 °C 7.7 °C 1023.2 hPa Calm     89 % 0.0 mm 0.0 W/m2 CLR
03:51 9.4 °C 7.7 °C 1023.2 hPa Calm     89 % 0.0 mm 0.0 W/m2 CLR
03:56 9.4 °C 7.7 °C 1023.2 hPa Calm     89 % 0.0 mm 0.0 W/m2 CLR
04:01 9.4 °C 7.7 °C 1023.2 hPa Calm     89 % 0.0 mm 0.0 W/m2 CLR
04:06 9.4 °C 7.7 °C 1023.2 hPa Calm     89 % 0.0 mm 0.0 W/m2 CLR
04:11 8.9 °C 7.2 °C 1022.9 hPa Calm     89 % 0.0 mm 0.0 W/m2 CLR
04:16 8.9 °C 7.2 °C 1023.2 hPa Calm     89 % 0.0 mm 0.0 W/m2 CLR
04:21 8.9 °C 7.2 °C 1022.9 hPa Calm     89 % 0.0 mm 0.0 W/m2 CLR
04:26 8.9 °C 7.3 °C 1022.9 hPa Calm     90 % 0.0 mm 0.0 W/m2 CLR
04:31 8.9 °C 7.3 °C 1022.9 hPa Calm     90 % 0.0 mm 0.0 W/m2 CLR
04:36 8.9 °C 7.3 °C 1022.9 hPa Calm     90 % 0.0 mm 0.0 W/m2 CLR
04:41 8.9 °C 7.3 °C 1022.9 hPa Calm     90 % 0.0 mm 0.0 W/m2 CLR
04:46 8.9 °C 7.3 °C 1022.9 hPa Calm     90 % 0.0 mm 0.0 W/m2 CLR
04:51 8.9 °C 7.3 °C 1022.9 hPa Calm     90 % 0.0 mm 0.0 W/m2 CLR
04:56 8.9 °C 7.3 °C 1022.9 hPa Calm     90 % 0.0 mm 0.0 W/m2 CLR
05:01 8.9 °C 7.3 °C 1022.6 hPa Calm     90 % 0.0 mm 0.0 W/m2 CLR
05:06 8.9 °C 7.3 °C 1022.6 hPa Calm     90 % 0.0 mm 0.0 W/m2 CLR
05:13 8.9 °C 7.3 °C 1022.9 hPa Calm     90 % 0.0 mm 0.0 W/m2 CLR
05:20 8.9 °C 7.3 °C 1022.6 hPa Calm     90 % 0.0 mm 0.0 W/m2 CLR
05:21 8.9 °C 7.3 °C 1022.6 hPa Calm     90 % 0.0 mm 0.0 W/m2 CLR
05:22 8.9 °C 7.5 °C 1022.6 hPa Calm     91 % 0.0 mm 0.0 W/m2 CLR
05:25 8.9 °C 7.3 °C 1022.9 hPa Calm     90 % 0.0 mm 0.0 W/m2 CLR
05:27 8.3 °C 6.8 °C 1022.9 hPa Calm     90 % 0.0 mm 0.0 W/m2 CLR
05:28 8.3 °C 6.8 °C 1022.9 hPa Calm     90 % 0.0 mm 0.0 W/m2 CLR
05:29 8.3 °C 6.8 °C 1022.9 hPa Calm     90 % 0.0 mm 0.0 W/m2 CLR
05:34 8.3 °C 6.8 °C 1022.6 hPa Calm     90 % 0.0 mm 0.0 W/m2 CLR
05:39 8.3 °C 6.8 °C 1022.9 hPa Calm     90 % 0.0 mm 0.0 W/m2 CLR
05:44 8.3 °C 6.8 °C 1022.9 hPa Calm     90 % 0.0 mm 0.0 W/m2 CLR
05:49 8.3 °C 6.9 °C 1022.9 hPa Calm     91 % 0.0 mm 0.0 W/m2 CLR
05:54 8.3 °C 6.9 °C 1022.9 hPa Calm     91 % 0.0 mm 0.0 W/m2 CLR
05:59 8.3 °C 6.9 °C 1022.9 hPa Calm     91 % 0.0 mm 0.0 W/m2 CLR
06:04 8.3 °C 6.9 °C 1022.9 hPa Calm     91 % 0.0 mm 0.0 W/m2 CLR
06:09 7.8 °C 6.4 °C 1022.9 hPa Calm     91 % 0.0 mm 0.0 W/m2 CLR
06:14 7.8 °C 6.4 °C 1022.9 hPa Calm     91 % 0.0 mm 0.0 W/m2 CLR
06:19 7.8 °C 6.4 °C 1023.2 hPa Calm     91 % 0.0 mm 0.0 W/m2 CLR
06:24 7.8 °C 6.4 °C 1023.2 hPa Calm     91 % 0.0 mm 0.0 W/m2 CLR
06:29 8.3 °C 6.9 °C 1023.2 hPa Calm     91 % 0.0 mm 0.0 W/m2 CLR
06:34 8.3 °C 6.9 °C 1023.2 hPa Calm     91 % 0.0 mm 0.0 W/m2 CLR
06:39 8.3 °C 6.9 °C 1023.2 hPa Calm     91 % 0.0 mm 0.0 W/m2 CLR
06:44 8.3 °C 6.9 °C 1023.2 hPa Calm     91 % 0.0 mm 0.0 W/m2 CLR
06:49 8.3 °C 6.9 °C 1023.2 hPa Calm     91 % 0.0 mm 0.0 W/m2 CLR
06:54 8.3 °C 7.1 °C 1023.2 hPa Calm     92 % 0.0 mm 0.0 W/m2 CLR
06:59 8.3 °C 6.9 °C 1023.6 hPa Calm     91 % 0.0 mm 0.0 W/m2 CLR
07:04 8.3 °C 6.9 °C 1023.6 hPa Calm     91 % 0.0 mm 0.0 W/m2 CLR
07:10 8.3 °C 6.9 °C 1023.6 hPa Calm     91 % 0.0 mm 0.0 W/m2 CLR
07:15 8.3 °C 6.9 °C 1023.6 hPa Calm     91 % 0.0 mm 0.0 W/m2 CLR
07:20 8.3 °C 6.9 °C 1023.6 hPa Calm     91 % 0.0 mm 0.0 W/m2 CLR
07:25 8.3 °C 7.1 °C 1023.6 hPa Calm     92 % 0.0 mm 0.0 W/m2 CLR
07:30 8.3 °C 6.9 °C 1023.6 hPa Calm     91 % 0.0 mm 0.0 W/m2 CLR
07:35 8.3 °C 6.9 °C 1023.6 hPa Calm     91 % 0.0 mm 0.0 W/m2 CLR
07:40 8.3 °C 6.9 °C 1023.6 hPa Calm     91 % 0.0 mm 0.0 W/m2 CLR
07:45 7.8 °C 6.4 °C 1023.6 hPa Calm     91 % 0.0 mm 0.0 W/m2 CLR
07:50 7.8 °C 6.4 °C 1023.6 hPa Calm     91 % 0.0 mm 0.0 W/m2 CLR
07:55 7.8 °C 6.6 °C 1023.9 hPa Calm     92 % 0.0 mm 0.0 W/m2 CLR
08:00 7.8 °C 6.6 °C 1023.9 hPa Calm     92 % 0.0 mm 0.0 W/m2 CLR
08:05 7.8 °C 6.4 °C 1023.9 hPa Calm     91 % 0.0 mm 0.0 W/m2 CLR
08:11 8.3 °C 6.9 °C 1023.9 hPa Calm     91 % 0.0 mm 0.0 W/m2 OVC
08:16 8.3 °C 6.9 °C 1023.9 hPa Calm     91 % 0.0 mm 0.0 W/m2 OVC
08:21 8.3 °C 6.9 °C 1023.9 hPa Calm     91 % 0.0 mm 5.0 W/m2 OVC
08:26 8.3 °C 7.1 °C 1023.9 hPa Calm     92 % 0.0 mm 7.0 W/m2 BKN
08:31 8.3 °C 7.1 °C 1023.9 hPa Calm     92 % 0.0 mm 11.0 W/m2 BKN
08:36 8.3 °C 7.1 °C 1024.3 hPa Calm     92 % 0.0 mm 12.0 W/m2 BKN
08:41 8.3 °C 7.1 °C 1024.3 hPa Calm     92 % 0.0 mm 14.0 W/m2 BKN
08:46 8.3 °C 6.9 °C 1024.3 hPa Calm     91 % 0.0 mm 16.0 W/m2 BKN
08:51 8.3 °C 6.9 °C 1023.9 hPa Calm     91 % 0.0 mm 18.0 W/m2 BKN
08:56 8.3 °C 7.1 °C 1024.3 hPa Calm     92 % 0.0 mm 33.0 W/m2 BKN
09:01 8.3 °C 7.1 °C 1024.3 hPa Calm     92 % 0.0 mm 47.0 W/m2 BKN
09:06 8.3 °C 7.1 °C 1024.3 hPa Calm     92 % 0.0 mm 60.0 W/m2 SCT
09:11 8.3 °C 6.9 °C 1024.3 hPa Calm     91 % 0.0 mm 72.0 W/m2 SCT
09:16 8.9 °C 7.5 °C 1024.3 hPa Calm     91 % 0.0 mm 84.0 W/m2 FEW
09:21 8.9 °C 7.3 °C 1024.3 hPa Calm     90 % 0.0 mm 91.0 W/m2 FEW
09:26 9.4 °C 7.9 °C 1024.3 hPa Calm     90 % 0.0 mm 91.0 W/m2 CLR
09:31 9.4 °C 7.7 °C 1024.3 hPa Calm     89 % 0.0 mm 105.0 W/m2 CLR
09:36 9.4 °C 7.6 °C 1024.3 hPa Calm     88 % 0.0 mm 132.0 W/m2 CLR
09:41 10.0 °C 8.1 °C 1024.3 hPa Calm     88 % 0.0 mm 128.0 W/m2 CLR
09:46 10.6 °C 8.5 °C 1024.3 hPa Calm     87 % 0.0 mm 179.0 W/m2 CLR
09:51 10.6 °C 8.3 °C 1024.3 hPa Calm     86 % 0.0 mm 200.0 W/m2 CLR
09:56 11.1 °C 8.5 °C 1024.3 hPa Calm     84 % 0.0 mm 223.0 W/m2 CLR
10:01 11.1 °C 8.2 °C 1024.3 hPa Calm     82 % 0.0 mm 239.0 W/m2 CLR
10:06 11.1 °C 7.9 °C 1024.3 hPa Calm     81 % 0.0 mm 251.0 W/m2 CLR
10:11 11.7 °C 8.2 °C 1024.3 hPa Calm     79 % 0.0 mm 265.0 W/m2 CLR
10:16 12.2 °C 8.5 °C 1024.6 hPa Calm     78 % 0.0 mm 283.0 W/m2 CLR
10:21 12.8 °C 8.7 °C 1024.3 hPa Calm     76 % 0.0 mm 294.0 W/m2 CLR
10:26 12.8 °C 8.1 °C 1024.3 hPa Calm     73 % 0.0 mm 308.0 W/m2 CLR
10:31 13.3 °C 8.2 °C 1024.3 hPa Calm     71 % 0.0 mm 320.0 W/m2 CLR
10:36 15.0 °C 9.3 °C 1024.3 hPa Calm     69 % 0.0 mm 332.0 W/m2 CLR
10:41 15.0 °C 9.3 °C 1024.3 hPa SW 7.4 km/h 7.4 km/h 69 % 0.0 mm 348.0 W/m2 CLR
10:46 15.0 °C 8.9 °C 1024.3 hPa SSW 16.7 km/h 16.7 km/h 67 % 0.0 mm 359.0 W/m2 CLR
10:51 15.6 °C 9.0 °C 1024.3 hPa SSW 16.7 km/h 16.7 km/h 65 % 0.0 mm 371.0 W/m2 CLR
10:56 16.1 °C 9.3 °C 1024.3 hPa SW 18.5 km/h 18.5 km/h 64 % 0.0 mm 380.0 W/m2 CLR
11:01 18.3 °C 11.4 °C 1024.3 hPa WSW 11.3 km/h 11.3 km/h 64 % 0.0 mm 396.0 W/m2 CLR
11:06 19.4 °C 12.2 °C 1024.3 hPa SSW 14.8 km/h 14.8 km/h 63 % 0.0 mm 406.0 W/m2 CLR
11:11 20.0 °C 12.7 °C 1024.3 hPa SW 18.5 km/h 18.5 km/h 63 % 0.0 mm 418.0 W/m2 CLR
11:16 20.0 °C 12.7 °C 1024.3 hPa SSW 14.8 km/h 14.8 km/h 63 % 0.0 mm 427.0 W/m2 CLR
11:21 20.6 °C 13.0 °C 1024.3 hPa SW 20.9 km/h 21.4 km/h 62 % 0.0 mm 439.0 W/m2 CLR
11:26 20.6 °C 13.3 °C 1024.3 hPa SW 20.9 km/h 20.9 km/h 63 % 0.0 mm 452.0 W/m2 CLR
11:31 21.1 °C 13.6 °C 1024.3 hPa SW 18.5 km/h 18.5 km/h 62 % 0.0 mm 461.0 W/m2 CLR
11:36 21.1 °C 13.3 °C 1024.3 hPa SW 16.7 km/h 16.7 km/h 61 % 0.0 mm 469.0 W/m2 CLR
11:41 21.1 °C 13.6 °C 1024.3 hPa SW 16.7 km/h 16.7 km/h 62 % 0.0 mm 480.0 W/m2 CLR
11:46 21.1 °C 13.1 °C 1024.3 hPa SW 18.5 km/h 18.5 km/h 60 % 0.0 mm 490.0 W/m2 CLR
11:51 21.1 °C 13.1 °C 1024.3 hPa WSW 16.7 km/h 16.7 km/h 60 % 0.0 mm 503.0 W/m2 CLR
11:56 21.1 °C 12.8 °C 1023.9 hPa SSW 16.7 km/h 16.7 km/h 59 % 0.0 mm 517.0 W/m2 CLR
12:01 21.7 °C 13.6 °C 1023.9 hPa South 9.3 km/h 9.3 km/h 60 % 0.0 mm 536.0 W/m2 CLR
12:06 21.7 °C 13.6 °C 1023.9 hPa SW 13.0 km/h 13.0 km/h 60 % 0.0 mm 527.0 W/m2 CLR
12:11 22.2 °C 13.8 °C 1023.9 hPa West 16.7 km/h 16.7 km/h 59 % 0.0 mm 536.0 W/m2 CLR
12:16 22.2 °C 13.8 °C 1023.9 hPa SW 27.8 km/h 27.8 km/h 59 % 0.0 mm 543.0 W/m2 CLR
12:21 22.2 °C 13.8 °C 1023.9 hPa SW 29.0 km/h 29.0 km/h 59 % 0.0 mm 550.0 W/m2 CLR
12:26 22.2 °C 13.8 °C 1023.9 hPa WSW 22.2 km/h 22.2 km/h 59 % 0.0 mm 561.0 W/m2 CLR
12:31 22.8 °C 14.1 °C 1023.9 hPa SW 24.1 km/h 24.1 km/h 58 % 0.0 mm 578.0 W/m2 CLR
12:36 23.3 °C 14.6 °C 1023.9 hPa SW 31.5 km/h 31.5 km/h 58 % 0.0 mm 584.0 W/m2 CLR
12:41 23.3 °C 14.3 °C 1023.9 hPa SW 27.8 km/h 27.8 km/h 57 % 0.0 mm 589.0 W/m2 CLR
12:46 23.3 °C 14.6 °C 1023.9 hPa SW 29.6 km/h 29.6 km/h 58 % 0.0 mm 594.0 W/m2 CLR
12:51 23.9 °C 14.8 °C 1023.6 hPa SW 11.1 km/h 11.1 km/h 57 % 0.0 mm 599.0 W/m2 CLR
12:56 23.9 °C 14.8 °C 1023.6 hPa WSW 25.7 km/h 25.7 km/h 57 % 0.0 mm 566.0 W/m2 CLR
13:01 23.9 °C 14.8 °C 1023.9 hPa SW 27.8 km/h 27.8 km/h 57 % 0.0 mm 582.0 W/m2 CLR
13:06 23.9 °C 14.8 °C 1023.9 hPa SW 24.1 km/h 24.1 km/h 57 % 0.0 mm 524.0 W/m2 CLR
13:11 23.9 °C 14.6 °C 1023.9 hPa SSW 33.3 km/h 33.3 km/h 56 % 0.0 mm 501.0 W/m2 CLR
13:16 23.9 °C 14.8 °C 1023.6 hPa SW 25.9 km/h 25.9 km/h 57 % 0.0 mm 608.0 W/m2 CLR
13:26 23.9 °C 14.6 °C 1023.6 hPa WSW 25.9 km/h 25.9 km/h 56 % 0.0 mm 605.0 W/m2 CLR
13:31 23.9 °C 14.3 °C 1023.2 hPa SW 18.5 km/h 18.5 km/h 55 % 0.0 mm 606.0 W/m2 CLR
13:36 23.9 °C 14.3 °C 1023.2 hPa SW 22.5 km/h 22.5 km/h 55 % 0.0 mm 606.0 W/m2 CLR
13:41 24.4 °C 14.2 °C 1023.2 hPa West 29.6 km/h 29.6 km/h 53 % 0.0 mm 608.0 W/m2 CLR
13:46 24.4 °C 14.2 °C 1023.2 hPa SW 24.1 km/h 24.1 km/h 53 % 0.0 mm 608.0 W/m2 CLR
13:51 25.0 °C 14.8 °C 1022.9 hPa SSW 18.5 km/h 18.5 km/h 53 % 0.0 mm 612.0 W/m2 CLR
13:56 24.4 °C 13.9 °C 1022.9 hPa SW 25.9 km/h 25.9 km/h 52 % 0.0 mm 612.0 W/m2 CLR
14:01 24.4 °C 13.9 °C 1022.9 hPa WSW 22.2 km/h 22.2 km/h 52 % 0.0 mm 613.0 W/m2 CLR
14:06 24.4 °C 13.7 °C 1022.9 hPa West 18.5 km/h 18.5 km/h 51 % 0.0 mm 621.0 W/m2 CLR
14:11 24.4 °C 13.9 °C 1022.6 hPa West 22.2 km/h 22.2 km/h 52 % 0.0 mm 628.0 W/m2 CLR
14:17 24.4 °C 13.9 °C 1022.6 hPa WNW 22.2 km/h 22.2 km/h 52 % 0.0 mm 640.0 W/m2 CLR
14:22 24.4 °C 13.7 °C 1022.6 hPa West 13.0 km/h 13.0 km/h 51 % 0.0 mm 636.0 W/m2 CLR
14:27 24.4 °C 13.9 °C 1022.6 hPa SW 7.4 km/h 7.4 km/h 52 % 0.0 mm 657.0 W/m2 CLR
14:32 24.4 °C 13.7 °C 1022.6 hPa West 11.3 km/h 11.3 km/h 51 % 0.0 mm 670.0 W/m2 CLR
14:37 25.0 °C 14.2 °C 1022.2 hPa SW 13.0 km/h 13.0 km/h 51 % 0.0 mm 694.0 W/m2 CLR
14:42 24.4 °C 13.9 °C 1022.2 hPa NW 12.9 km/h 12.9 km/h 52 % 0.0 mm 642.0 W/m2 CLR
14:47 24.4 °C 13.7 °C 1022.2 hPa WNW 18.5 km/h 18.5 km/h 51 % 0.0 mm 524.0 W/m2 CLR
14:52 24.4 °C 13.9 °C 1022.2 hPa WNW 9.3 km/h 9.3 km/h 52 % 0.0 mm 485.0 W/m2 CLR
14:57 24.4 °C 13.9 °C 1022.2 hPa NW 13.0 km/h 13.0 km/h 52 % 0.0 mm 675.0 W/m2 CLR
15:02 24.4 °C 13.9 °C 1022.2 hPa West 1.6 km/h   52 % 0.0 mm 621.0 W/m2 CLR
15:07 23.9 °C 13.1 °C 1022.2 hPa NW 17.7 km/h 17.7 km/h 51 % 0.0 mm 605.0 W/m2 CLR
15:12 24.4 °C 13.7 °C 1022.2 hPa West 18.5 km/h 18.5 km/h 51 % 0.0 mm 503.0 W/m2 CLR
15:17 24.4 °C 13.7 °C 1022.2 hPa West 14.5 km/h 14.5 km/h 51 % 0.0 mm 478.0 W/m2 CLR
15:22 24.4 °C 13.7 °C 1022.2 hPa West 9.3 km/h 9.3 km/h 51 % 0.0 mm 642.0 W/m2 CLR
15:27 24.4 °C 13.3 °C 1021.9 hPa West 24.1 km/h 24.1 km/h 50 % 0.0 mm 325.0 W/m2 CLR
15:32 24.4 °C 13.7 °C 1022.2 hPa WSW 25.9 km/h 25.9 km/h 51 % 0.0 mm 596.0 W/m2 CLR
15:37 25.0 °C 14.2 °C 1021.9 hPa West 9.3 km/h 9.3 km/h 51 % 0.0 mm 404.0 W/m2 CLR
15:42 23.9 °C 13.1 °C 1021.9 hPa WNW 22.5 km/h 22.5 km/h 51 % 0.0 mm 269.0 W/m2 CLR
15:47 23.9 °C 13.4 °C 1021.9 hPa West 13.0 km/h 13.0 km/h 52 % 0.0 mm 496.0 W/m2 CLR
15:52 23.9 °C 13.1 °C 1021.9 hPa WSW 14.5 km/h 14.5 km/h 51 % 0.0 mm 417.0 W/m2 CLR
15:57 23.9 °C 13.1 °C 1021.9 hPa West 13.0 km/h 13.0 km/h 51 % 0.0 mm 512.0 W/m2 CLR
16:02 24.4 °C 13.7 °C 1021.9 hPa West 16.7 km/h 16.7 km/h 51 % 0.0 mm 457.0 W/m2 CLR
16:07 24.4 °C 13.7 °C 1021.9 hPa West 11.1 km/h 11.1 km/h 51 % 0.0 mm 436.0 W/m2 CLR
16:12 24.4 °C 13.7 °C 1021.9 hPa West 16.1 km/h 16.1 km/h 51 % 0.0 mm 485.0 W/m2 CLR
16:17 25.0 °C 13.8 °C 1021.9 hPa WSW 18.5 km/h 18.5 km/h 50 % 0.0 mm 334.0 W/m2 CLR
16:27 25.0 °C 13.6 °C 1021.9 hPa SW 9.3 km/h 9.3 km/h 49 % 0.0 mm 211.0 W/m2 CLR
16:32 24.4 °C 13.3 °C 1021.9 hPa WSW 16.7 km/h 16.7 km/h 50 % 0.0 mm 200.0 W/m2 CLR
16:37 24.4 °C 13.3 °C 1021.9 hPa West 11.1 km/h 11.1 km/h 50 % 0.0 mm 218.0 W/m2 CLR
16:42 24.4 °C 13.3 °C 1021.9 hPa West 13.0 km/h 13.0 km/h 50 % 0.0 mm 209.0 W/m2 CLR
16:47 23.9 °C 12.8 °C 1021.9 hPa Calm     50 % 0.0 mm 209.0 W/m2 CLR
16:52 23.9 °C 12.8 °C 1021.9 hPa West 16.7 km/h 16.7 km/h 50 % 0.0 mm 211.0 W/m2 CLR
16:57 23.9 °C 12.8 °C 1021.9 hPa WNW 16.7 km/h 16.7 km/h 50 % 0.0 mm 193.0 W/m2 CLR
16:58 23.9 °C 12.8 °C 1021.9 hPa West 18.5 km/h 18.5 km/h 50 % 0.0 mm 188.0 W/m2 CLR
17:03 23.9 °C 12.8 °C 1021.9 hPa West 14.8 km/h 14.8 km/h 50 % 0.0 mm 178.0 W/m2 CLR
17:08 23.9 °C 12.8 °C 1021.9 hPa West 13.0 km/h 13.0 km/h 50 % 0.0 mm 172.0 W/m2 CLR
17:13 23.9 °C 12.8 °C 1021.9 hPa West 16.7 km/h 16.7 km/h 50 % 0.0 mm 162.0 W/m2 CLR
17:18 23.9 °C 12.8 °C 1021.9 hPa West 18.5 km/h 18.5 km/h 50 % 0.0 mm 149.0 W/m2 CLR
17:23 23.3 °C 12.3 °C 1021.9 hPa West 16.7 km/h 16.7 km/h 50 % 0.0 mm 130.0 W/m2 CLR
17:28 23.3 °C 12.3 °C 1021.9 hPa WSW 11.3 km/h 11.3 km/h 50 % 0.0 mm 123.0 W/m2 CLR
17:33 23.3 °C 12.6 °C 1021.9 hPa WSW 3.7 km/h   51 % 0.0 mm 120.0 W/m2 CLR
17:38 23.3 °C 12.6 °C 1021.9 hPa West 16.7 km/h 16.7 km/h 51 % 0.0 mm 132.0 W/m2 CLR
17:43 23.3 °C 12.9 °C 1021.9 hPa Calm     52 % 0.0 mm 137.0 W/m2 CLR
17:48 23.3 °C 12.9 °C 1021.9 hPa Calm     52 % 0.0 mm 174.0 W/m2 CLR
17:53 23.3 °C 12.6 °C 1021.9 hPa West 7.4 km/h 7.4 km/h 51 % 0.0 mm 146.0 W/m2 CLR
17:58 23.3 °C 12.6 °C 1021.9 hPa West 16.1 km/h 16.1 km/h 51 % 0.0 mm 118.0 W/m2 CLR
18:03 23.3 °C 12.6 °C 1021.9 hPa West 19.3 km/h 19.3 km/h 51 % 0.0 mm 132.0 W/m2 CLR
18:08 23.3 °C 12.9 °C 1022.2 hPa WNW 18.5 km/h 18.5 km/h 52 % 0.0 mm 79.0 W/m2 CLR
18:14 23.3 °C 12.9 °C 1022.2 hPa West 13.0 km/h 13.0 km/h 52 % 0.0 mm 63.0 W/m2 FEW
18:18 23.3 °C 12.9 °C 1022.2 hPa West 13.0 km/h 13.0 km/h 52 % 0.0 mm 51.0 W/m2 SCT
18:23 22.8 °C 12.7 °C 1022.2 hPa WNW 20.4 km/h 20.4 km/h 53 % 0.0 mm 44.0 W/m2 BKN
18:29 22.8 °C 13.0 °C 1022.2 hPa West 17.7 km/h 17.7 km/h 54 % 0.0 mm 33.0 W/m2 BKN
18:34 22.8 °C 13.3 °C 1022.2 hPa West 27.8 km/h 27.8 km/h 55 % 0.0 mm 32.0 W/m2 BKN
18:39 22.2 °C 13.6 °C 1022.6 hPa West 20.4 km/h 20.4 km/h 58 % 0.0 mm 32.0 W/m2 BKN
18:44 22.2 °C 14.3 °C 1022.6 hPa WSW 33.3 km/h 33.3 km/h 61 % 0.0 mm 26.0 W/m2 BKN
18:49 21.7 °C 14.6 °C 1022.9 hPa WSW 31.5 km/h 31.5 km/h 64 % 0.0 mm 23.0 W/m2 BKN
18:54 21.1 °C 14.3 °C 1022.9 hPa SW 31.5 km/h 31.5 km/h 65 % 0.0 mm 16.0 W/m2 BKN
18:59 20.6 °C 14.0 °C 1023.2 hPa WSW 35.4 km/h 35.4 km/h 66 % 0.0 mm 12.0 W/m2 BKN
19:04 20.0 °C 13.7 °C 1023.2 hPa SW 38.9 km/h 38.9 km/h 67 % 0.0 mm 7.0 W/m2 BKN
19:09 20.0 °C 14.1 °C 1023.2 hPa SW 25.9 km/h 25.9 km/h 69 % 0.0 mm 0.0 W/m2 OVC
19:14 19.4 °C 13.4 °C 1023.6 hPa WSW 43.4 km/h 43.4 km/h 68 % 0.0 mm 0.0 W/m2 OVC
19:19 18.9 °C 13.1 °C 1023.6 hPa WSW 31.5 km/h 31.5 km/h 69 % 0.0 mm 0.0 W/m2 OVC
19:24 18.9 °C 12.8 °C 1023.9 hPa WSW 42.6 km/h 42.6 km/h 68 % 0.0 mm 0.0 W/m2 CLR
19:29 18.3 °C 12.3 °C 1024.3 hPa WSW 40.2 km/h 40.2 km/h 68 % 0.0 mm 0.0 W/m2 CLR
19:34 18.3 °C 12.6 °C 1024.3 hPa WSW 31.5 km/h 31.5 km/h 69 % 0.0 mm 0.0 W/m2 CLR
19:39 18.3 °C 12.6 °C 1024.3 hPa SW 24.1 km/h 24.1 km/h 69 % 0.0 mm 0.0 W/m2 CLR
19:44 17.8 °C 12.0 °C 1024.3 hPa SSW 22.2 km/h 22.2 km/h 69 % 0.0 mm 0.0 W/m2 CLR
19:49 17.8 °C 12.0 °C 1024.6 hPa SW 24.1 km/h 24.1 km/h 69 % 0.0 mm 0.0 W/m2 CLR
19:50 17.8 °C 11.8 °C 1024.6 hPa SW 27.8 km/h 27.8 km/h 68 % 0.0 mm 0.0 W/m2 CLR
19:55 17.8 °C 11.8 °C 1024.6 hPa WSW 31.5 km/h 31.5 km/h 68 % 0.0 mm 0.0 W/m2 CLR
20:00 17.8 °C 11.8 °C 1024.6 hPa South 20.4 km/h 20.4 km/h 68 % 0.0 mm 0.0 W/m2 CLR
20:05 17.2 °C 11.3 °C 1024.6 hPa SSW 24.1 km/h 24.1 km/h 68 % 0.0 mm 0.0 W/m2 CLR
20:11 17.2 °C 11.3 °C 1024.9 hPa SW 29.6 km/h 29.6 km/h 68 % 0.0 mm 0.0 W/m2 CLR
20:16 17.2 °C 11.3 °C 1024.9 hPa South 25.7 km/h 25.7 km/h 68 % 0.0 mm 0.0 W/m2 CLR
20:21 17.2 °C 11.1 °C 1024.9 hPa WSW 27.8 km/h 27.8 km/h 67 % 0.0 mm 0.0 W/m2 CLR
20:26 16.7 °C 10.5 °C 1025.3 hPa SW 20.4 km/h 20.4 km/h 67 % 0.0 mm 0.0 W/m2 CLR
20:31 16.7 °C 10.5 °C 1025.3 hPa SSW 18.5 km/h 18.5 km/h 67 % 0.0 mm 0.0 W/m2 CLR
20:36 16.7 °C 10.5 °C 1025.3 hPa SSW 22.2 km/h 22.2 km/h 67 % 0.0 mm 0.0 W/m2 CLR
20:41 16.7 °C 10.5 °C 1025.6 hPa SW 14.8 km/h 14.8 km/h 67 % 0.0 mm 0.0 W/m2 CLR
20:46 16.7 °C 10.5 °C 1025.6 hPa South 9.7 km/h 9.7 km/h 67 % 0.0 mm 0.0 W/m2 CLR
20:51 16.7 °C 10.5 °C 1025.6 hPa South 5.6 km/h   67 % 0.0 mm 0.0 W/m2 CLR
20:56 16.7 °C 10.3 °C 1026.0 hPa Calm     66 % 0.0 mm 0.0 W/m2 CLR
21:01 16.7 °C 10.3 °C 1026.0 hPa Calm     66 % 0.0 mm 0.0 W/m2 CLR
21:06 16.7 °C 10.3 °C 1026.0 hPa SW 18.5 km/h 18.5 km/h 66 % 0.0 mm 0.0 W/m2 CLR
21:11 16.7 °C 10.1 °C 1026.0 hPa SSW 24.1 km/h 24.1 km/h 65 % 0.0 mm 0.0 W/m2 CLR
21:16 16.7 °C 10.1 °C 1026.3 hPa South 18.5 km/h 18.5 km/h 65 % 0.0 mm 0.0 W/m2 CLR
21:21 16.7 °C 10.1 °C 1026.3 hPa SW 14.8 km/h 14.8 km/h 65 % 0.0 mm 0.0 W/m2 CLR
21:26 16.7 °C 9.8 °C 1026.3 hPa SSW 18.5 km/h 18.5 km/h 64 % 0.0 mm 0.0 W/m2 CLR
21:31 16.7 °C 9.8 °C 1026.3 hPa SSW 6.4 km/h 6.4 km/h 64 % 0.0 mm 0.0 W/m2 CLR
21:36 16.7 °C 9.8 °C 1026.6 hPa SSW 11.1 km/h 11.1 km/h 64 % 0.0 mm 0.0 W/m2 CLR
21:41 16.7 °C 9.6 °C 1026.6 hPa SSW 5.6 km/h 5.6 km/h 63 % 0.0 mm 0.0 W/m2 CLR
21:46 16.7 °C 9.6 °C 1026.6 hPa SSW 7.4 km/h 7.4 km/h 63 % 0.0 mm 0.0 W/m2 CLR
21:51 16.7 °C 9.6 °C 1026.6 hPa SW 18.5 km/h 18.5 km/h 63 % 0.0 mm 0.0 W/m2 CLR
21:56 16.7 °C 9.6 °C 1026.6 hPa SW 16.7 km/h 16.7 km/h 63 % 0.0 mm 0.0 W/m2 CLR
22:01 16.1 °C 9.1 °C 1026.6 hPa SW 18.5 km/h 18.5 km/h 63 % 0.0 mm 0.0 W/m2 CLR
22:06 16.1 °C 9.1 °C 1026.6 hPa SW 13.0 km/h 13.0 km/h 63 % 0.0 mm 0.0 W/m2 CLR
22:11 16.1 °C 9.1 °C 1027.0 hPa SSW 18.5 km/h 18.5 km/h 63 % 0.0 mm 0.0 W/m2 CLR
22:16 16.1 °C 9.1 °C 1027.0 hPa SSW 18.5 km/h 18.5 km/h 63 % 0.0 mm 0.0 W/m2 CLR
22:21 16.1 °C 9.1 °C 1027.0 hPa SW 31.5 km/h 31.5 km/h 63 % 0.0 mm 0.0 W/m2 CLR
22:26 16.1 °C 9.1 °C 1027.3 hPa SW 24.1 km/h 24.1 km/h 63 % 0.0 mm 0.0 W/m2 CLR
22:31 16.1 °C 9.1 °C 1027.3 hPa SSW 29.6 km/h 29.6 km/h 63 % 0.0 mm 0.0 W/m2 CLR
22:36 16.1 °C 9.3 °C 1027.3 hPa SSW 25.9 km/h 25.9 km/h 64 % 0.0 mm 0.0 W/m2 CLR
22:41 16.1 °C 9.3 °C 1027.3 hPa SSW 25.9 km/h 25.9 km/h 64 % 0.0 mm 0.0 W/m2 CLR
22:46 16.1 °C 9.3 °C 1027.3 hPa SSW 29.6 km/h 29.6 km/h 64 % 0.0 mm 0.0 W/m2 CLR
22:51 16.1 °C 9.3 °C 1027.3 hPa SSW 27.8 km/h 27.8 km/h 64 % 0.0 mm 0.0 W/m2 CLR
22:56 16.1 °C 9.1 °C 1027.3 hPa SW 20.9 km/h 20.9 km/h 63 % 0.0 mm 0.0 W/m2 CLR
23:01 16.1 °C 9.1 °C 1027.7 hPa South 27.8 km/h 27.8 km/h 63 % 0.0 mm 0.0 W/m2 CLR
23:06 16.1 °C 9.1 °C 1027.7 hPa SW 27.4 km/h 27.4 km/h 63 % 0.0 mm 0.0 W/m2 CLR
23:11 16.1 °C 9.1 °C 1027.7 hPa SSW 16.7 km/h 16.7 km/h 63 % 0.0 mm 0.0 W/m2 CLR
23:13 16.1 °C 9.1 °C 1027.7 hPa SSW 18.5 km/h 18.5 km/h 63 % 0.0 mm 0.0 W/m2 CLR
23:18 16.1 °C 9.1 °C 1028.0 hPa SSW 16.7 km/h 16.7 km/h 63 % 0.0 mm 0.0 W/m2 CLR
23:23 15.6 °C 8.6 °C 1028.0 hPa SSW 14.8 km/h 14.8 km/h 63 % 0.0 mm 0.0 W/m2 CLR
23:28 15.6 °C 8.6 °C 1028.0 hPa South 20.4 km/h 20.4 km/h 63 % 0.0 mm 0.0 W/m2 CLR
23:33 15.6 °C 8.6 °C 1028.0 hPa SSW 18.5 km/h 18.5 km/h 63 % 0.0 mm 0.0 W/m2 CLR
23:38 15.6 °C 8.6 °C 1028.0 hPa SSW 20.9 km/h 20.9 km/h 63 % 0.0 mm 0.0 W/m2 CLR
23:43 15.6 °C 8.6 °C 1028.0 hPa SSW 18.5 km/h 18.5 km/h 63 % 0.0 mm 0.0 W/m2 CLR
23:48 15.6 °C 8.6 °C 1028.0 hPa SSW 13.0 km/h 13.0 km/h 63 % 0.0 mm 0.0 W/m2 CLR
23:53 15.6 °C 8.6 °C 1028.3 hPa SSW 14.8 km/h 14.8 km/h 63 % 0.0 mm 0.0 W/m2 CLR
23:58 15.6 °C 8.6 °C 1028.3 hPa SSW 18.5 km/h 18.5 km/h 63 % 0.0 mm 0.0 W/m2 CLR
Lo Temps de Massalio
Compliments of Weather Underground - 1.25 mb